| time (UTC) | temp F | wind direction | speed MPH | gust MPH | rain 1hr in | rain 24hr in | rain mn in | humidity % | barometer mb |
| 20260906152541 | 73 | 59 | 0.0 | 4.0 | 0.00 | 0.00 | 0.00 | 75 | 1021.4 |
| 20260906152041 | 72 | 55 | 6.0 | 8.0 | 0.00 | 0.00 | 0.00 | 76 | 1020.8 |
| 20260906151540 | 71 | 109 | 4.0 | 7.0 | 0.00 | 0.00 | 0.00 | 77 | 1021.2 |
| 20260906151011 | 72 | 96 | 6.0 | 8.0 | 0.00 | 0.00 | 0.00 | 76 | 1021.2 |
| 20260906150510 | 71 | 36 | 0.0 | 5.0 | 0.00 | 0.00 | 0.00 | 79 | 1021.2 |
| 20260906145941 | 71 | 57 | 2.0 | 7.0 | 0.00 | 0.00 | 0.00 | 79 | 1021.1 |
| 20260906145440 | 71 | 77 | 4.0 | 7.0 | 0.00 | 0.00 | 0.00 | 79 | 1021.4 |
| 20260906144940 | 70 | 80 | 4.0 | 6.0 | 0.00 | 0.00 | 0.00 | 82 | 1021.2 |
| 20260906144411 | 69 | 65 | 6.0 | 9.0 | 0.00 | 0.00 | 0.00 | 82 | 1020.9 |
| 20260906143910 | 69 | 98 | 6.0 | 7.0 | 0.00 | 0.00 | 0.00 | 81 | 1020.8 |
| 20260906143341 | 69 | 70 | 4.0 | 7.0 | 0.00 | 0.00 | 0.00 | 82 | 1021.1 |
| 20260906143102 | 70 | 64 | 4.0 | 7.0 | 0.00 | 0.00 | 0.00 | 81 | 1021.3 |
| 20260906142315 | 69 | 54 | 5.0 | 8.0 | 0.00 | 0.00 | 0.00 | 83 | 1021.3 |
| 20260906141741 | 69 | 98 | 2.0 | 6.0 | 0.00 | 0.00 | 0.00 | 82 | 1021.2 |
| 20260906141241 | 68 | 84 | 2.0 | 5.0 | 0.00 | 0.00 | 0.00 | 84 | 1021.4 |
| 20260906140740 | 68 | 111 | 5.0 | 6.0 | 0.00 | 0.00 | 0.00 | 83 | 1021.4 |
| 20260906140211 | 67 | 108 | 4.0 | 8.0 | 0.00 | 0.00 | 0.00 | 84 | 1021.4 |
| 20260906135930 | 67 | 92 | 3.0 | 6.0 | 0.00 | 0.00 | 0.00 | 83 | 1021.4 |
| 20260906135210 | 67 | 61 | 4.0 | 5.0 | 0.00 | 0.00 | 0.00 | 85 | 1021.6 |
| 20260906134641 | 66 | 82 | 5.0 | 6.0 | 0.00 | 0.00 | 0.00 | 84 | 1021.5 |
| 20260906134140 | 66 | 99 | 4.0 | 7.0 | 0.00 | 0.00 | 0.00 | 85 | 1021.5 |
| 20260906133611 | 66 | 98 | 4.0 | 7.0 | 0.00 | 0.00 | 0.00 | 83 | 1021.3 |
| 20260906133111 | 65 | 92 | 3.0 | 5.0 | 0.00 | 0.00 | 0.00 | 85 | 1021.3 |
| 20260906132610 | 64 | 121 | 3.0 | 6.0 | 0.00 | 0.00 | 0.00 | 86 | 1021.3 |
| 20260906132331 | 64 | 79 | 4.0 | 7.0 | 0.00 | 0.00 | 0.00 | 85 | 1021.2 |
| 20260906131610 | 64 | 73 | 4.0 | 7.0 | 0.00 | 0.00 | 0.00 | 85 | 1021.2 |
| 20260906131110 | 64 | 89 | 4.0 | 5.0 | 0.00 | 0.00 | 0.00 | 85 | 1021.3 |
| 20260906130541 | 64 | 100 | 1.0 | 4.0 | 0.00 | 0.00 | 0.00 | 85 | 1021.0 |
| 20260906130040 | 63 | 75 | 4.0 | 4.0 | 0.00 | 0.00 | 0.00 | 86 | 1021.1 |
| 20260906125511 | 62 | 66 | 2.0 | 6.0 | 0.00 | 0.00 | 0.00 | 86 | 1021.0 |
| 20260906125011 | 62 | 68 | 3.0 | 5.0 | 0.00 | 0.00 | 0.00 | 86 | 1021.0 |
| 20260906124441 | 62 | 105 | 1.0 | 8.0 | 0.00 | 0.00 | 0.00 | 86 | 1021.2 |
| 20260906123941 | 61 | 127 | 1.0 | 8.0 | 0.00 | 0.00 | 0.00 | 87 | 1021.0 |
| 20260906123410 | 61 | 77 | 5.0 | 6.0 | 0.00 | 0.00 | 0.00 | 87 | 1021.1 |
| 20260906122841 | 61 | 85 | 3.0 | 6.0 | 0.00 | 0.00 | 0.00 | 88 | 1021.0 |
| 20260906122341 | 60 | 85 | 4.0 | 6.0 | 0.00 | 0.00 | 0.00 | 90 | 1021.0 |
| 20260906121841 | 60 | 64 | 4.0 | 9.0 | 0.00 | 0.00 | 0.00 | 90 | 1020.8 |
| 20260906121311 | 60 | 95 | 3.0 | 6.0 | 0.00 | 0.00 | 0.00 | 91 | 1020.7 |
| 20260906120811 | 59 | 91 | 4.0 | 5.0 | 0.00 | 0.00 | 0.00 | 94 | 1020.9 |
| 20260906120755 | 58 | 99 | 2.0 | 4.0 | 0.00 | 0.00 | 0.00 | 96 | 1020.9 |
| 20260906115740 | 58 | 64 | 0.0 | 4.0 | 0.00 | 0.00 | 0.00 | 96 | 1020.8 |
| 20260906115211 | 58 | 91 | 0.0 | 2.0 | 0.00 | 0.00 | 0.00 | 96 | 1020.8 |
| 20260906114710 | 57 | 35 | 2.0 | 3.0 | 0.00 | 0.00 | 0.00 | 96 | 1020.6 |
| 20260906114210 | 57 | 79 | 1.0 | 3.0 | 0.00 | 0.00 | 0.00 | 97 | 1020.7 |
| 20260906113641 | 56 | 97 | 2.0 | 3.0 | 0.00 | 0.00 | 0.00 | 97 | 1020.5 |
| 20260906113111 | 57 | 113 | 2.0 | 3.0 | 0.00 | 0.00 | 0.00 | 97 | 1020.4 |
| 20260906112611 | 57 | 71 | 3.0 | 5.0 | 0.00 | 0.00 | 0.00 | 97 | 1020.2 |
| 20260906112111 | 56 | 84 | 3.0 | 4.0 | 0.00 | 0.00 | 0.00 | 97 | 1020.1 |
| 20260906111610 | 56 | 91 | 2.0 | 3.0 | 0.00 | 0.00 | 0.00 | 97 | 1020.3 |
| 20260906111110 | 56 | 99 | 0.0 | 3.0 | 0.00 | 0.00 | 0.00 | 97 | 1020.2 |
| 20260906110801 | 57 | 82 | 2.0 | 3.0 | 0.00 | 0.00 | 0.00 | 97 | 1019.8 |
| 20260906110011 | 57 | 99 | 1.0 | 3.0 | 0.00 | 0.00 | 0.00 | 96 | 1019.9 |
| 20260906105510 | 56 | 103 | 2.0 | 3.0 | 0.00 | 0.00 | 0.00 | 96 | 1019.8 |
| 20260906105010 | 56 | 89 | 2.0 | 3.0 | 0.00 | 0.00 | 0.00 | 97 | 1019.8 |
| 20260906104441 | 56 | 106 | 2.0 | 3.0 | 0.00 | 0.00 | 0.00 | 97 | 1019.5 |
| 20260906103941 | 57 | 100 | 1.0 | 3.0 | 0.00 | 0.00 | 0.00 | 97 | 1019.5 |
| 20260906103440 | 57 | 86 | 1.0 | 4.0 | 0.00 | 0.00 | 0.00 | 97 | 1019.9 |
| 20260906102911 | 57 | 80 | 3.0 | 4.0 | 0.00 | 0.00 | 0.00 | 97 | 1019.9 |
| 20260906102630 | 57 | 83 | 2.0 | 4.0 | 0.00 | 0.00 | 0.00 | 97 | 1019.8 |
| 20260906101910 | 57 | 97 | 2.0 | 4.0 | 0.00 | 0.00 | 0.00 | 97 | 1019.8 |
| 20260906101341 | 57 | 102 | 2.0 | 4.0 | 0.00 | 0.00 | 0.00 | 97 | 1019.9 |
| 20260906101100 | 57 | 105 | 1.0 | 3.0 | 0.00 | 0.00 | 0.00 | 97 | 1019.9 |
| 20260906100311 | 57 | 73 | 2.0 | 4.0 | 0.00 | 0.00 | 0.00 | 97 | 1020.0 |
| 20260906100030 | 57 | 94 | 3.0 | 4.0 | 0.00 | 0.00 | 0.00 | 97 | 1020.0 |
| 20260906095241 | 57 | 64 | 0.0 | 4.0 | 0.00 | 0.00 | 0.00 | 96 | 1019.9 |
| 20260906094740 | 57 | 58 | 2.0 | 4.0 | 0.00 | 0.00 | 0.00 | 96 | 1019.9 |
| 20260906094500 | 57 | 358 | 1.0 | 4.0 | 0.00 | 0.00 | 0.00 | 96 | 1019.7 |
| 20260906093711 | 57 | 95 | 3.0 | 4.0 | 0.00 | 0.00 | 0.00 | 96 | 1019.6 |
| 20260906093210 | 57 | 94 | 3.0 | 4.0 | 0.00 | 0.00 | 0.00 | 96 | 1019.8 |
| 20260906092710 | 57 | 106 | 2.0 | 4.0 | 0.00 | 0.00 | 0.00 | 96 | 1019.7 |
| 20260906092141 | 57 | 104 | 4.0 | 4.0 | 0.00 | 0.00 | 0.00 | 96 | 1019.7 |
| 20260906091641 | 57 | 105 | 2.0 | 4.0 | 0.00 | 0.00 | 0.00 | 96 | 1019.9 |
| 20260906091140 | 57 | 51 | 2.0 | 3.0 | 0.00 | 0.00 | 0.00 | 96 | 1020.0 |
| 20260906090640 | 57 | 75 | 3.0 | 3.0 | 0.00 | 0.00 | 0.00 | 96 | 1019.6 |
| 20260906090111 | 57 | 38 | 3.0 | 3.0 | 0.00 | 0.00 | 0.00 | 96 | 1019.8 |
| 20260906085611 | 58 | 46 | 1.0 | 4.0 | 0.00 | 0.00 | 0.00 | 97 | 1019.6 |
| 20260906085332 | 58 | 94 | 2.0 | 3.0 | 0.00 | 0.00 | 0.00 | 97 | 1019.6 |
| 20260906084540 | 58 | 14 | 2.0 | 2.0 | 0.00 | 0.00 | 0.00 | 96 | 1019.9 |
| 20260906084457 | 58 | 52 | 0.0 | 2.0 | 0.00 | 0.00 | 0.00 | 96 | 1019.9 |
| 20260906083441 | 58 | 206 | 2.0 | 3.0 | 0.00 | 0.00 | 0.00 | 96 | 1019.9 |
| 20260906082941 | 58 | 283 | 0.0 | 3.0 | 0.00 | 0.00 | 0.00 | 96 | 1019.8 |
| 20260906082441 | 58 | 95 | 1.0 | 4.0 | 0.00 | 0.00 | 0.00 | 96 | 1019.1 |
| 20260906081911 | 58 | 277 | 1.0 | 3.0 | 0.00 | 0.00 | 0.00 | 96 | 1019.8 |
| 20260906081411 | 58 | 16 | 1.0 | 3.0 | 0.00 | 0.00 | 0.00 | 96 | 1019.3 |
| 20260906080910 | 57 | 291 | 0.0 | 4.0 | 0.00 | 0.00 | 0.00 | 96 | 1019.3 |
| 20260906080410 | 58 | 128 | 2.0 | 4.0 | 0.00 | 0.00 | 0.00 | 96 | 1019.1 |
| 20260906075841 | 58 | 102 | 2.0 | 4.0 | 0.00 | 0.00 | 0.00 | 96 | 1019.3 |
| 20260906075311 | 58 | 120 | 2.0 | 3.0 | 0.00 | 0.00 | 0.00 | 96 | 1019.4 |
| 20260906074811 | 57 | 161 | 2.0 | 4.0 | 0.00 | 0.00 | 0.00 | 96 | 1019.4 |
| 20260906074241 | 58 | 108 | 2.0 | 4.0 | 0.00 | 0.00 | 0.00 | 96 | 1019.6 |
| 20260906073741 | 58 | 107 | 2.0 | 3.0 | 0.00 | 0.00 | 0.00 | 96 | 1019.5 |
| 20260906073211 | 58 | 260 | 1.0 | 3.0 | 0.00 | 0.00 | 0.00 | 96 | 1019.2 |
| 20260906072711 | 58 | 139 | 2.0 | 4.0 | 0.00 | 0.00 | 0.00 | 96 | 1019.5 |
| 20260906072210 | 58 | 81 | 2.0 | 4.0 | 0.00 | 0.00 | 0.00 | 95 | 1019.4 |
| 20260906071710 | 58 | 130 | 2.0 | 3.0 | 0.00 | 0.00 | 0.00 | 95 | 1019.5 |
| 20260906071359 | 58 | 137 | 2.0 | 4.0 | 0.00 | 0.00 | 0.00 | 95 | 1019.4 |
| 20260906070641 | 58 | 72 | 2.0 | 5.0 | 0.00 | 0.00 | 0.00 | 95 | 1019.3 |
| 20260906070401 | 58 | 127 | 4.0 | 4.0 | 0.00 | 0.00 | 0.00 | 96 | 1019.8 |
| 20260906065640 | 58 | 99 | 2.0 | 5.0 | 0.00 | 0.00 | 0.00 | 96 | 1019.5 |
| 20260906065140 | 58 | 129 | 6.0 | 6.0 | 0.00 | 0.00 | 0.00 | 96 | 1019.6 |
| 20260906064611 | 58 | 81 | 3.0 | 4.0 | 0.00 | 0.00 | 0.00 | 95 | 1019.6 |
| 20260906064110 | 59 | 11 | 0.0 | 4.0 | 0.00 | 0.00 | 0.00 | 95 | 1019.6 |
| 20260906063610 | 59 | 48 | 2.0 | 5.0 | 0.00 | 0.00 | 0.00 | 95 | 1019.6 |
| 20260906063040 | 59 | 171 | 3.0 | 5.0 | 0.00 | 0.00 | 0.00 | 95 | 1019.4 |
| 20260906062540 | 59 | 132 | 2.0 | 4.0 | 0.00 | 0.00 | 0.00 | 95 | 1019.6 |
| 20260906062011 | 59 | 217 | 3.0 | 5.0 | 0.00 | 0.00 | 0.00 | 95 | 1019.6 |
| 20260906061511 | 59 | 214 | 2.0 | 2.0 | 0.00 | 0.00 | 0.00 | 95 | 1019.7 |
| 20260906061010 | 59 | 155 | 2.0 | 4.0 | 0.00 | 0.00 | 0.00 | 94 | 1019.0 |
| 20260906060511 | 59 | 70 | 2.0 | 5.0 | 0.00 | 0.00 | 0.00 | 94 | 1019.4 |
| 20260906055941 | 59 | 120 | 3.0 | 4.0 | 0.00 | 0.00 | 0.00 | 94 | 1019.3 |
| 20260906055410 | 59 | 238 | 1.0 | 5.0 | 0.00 | 0.00 | 0.00 | 94 | 1019.1 |
| 20260906054840 | 60 | 192 | 4.0 | 5.0 | 0.00 | 0.00 | 0.00 | 93 | 1018.8 |
| 20260906054340 | 60 | 155 | 0.0 | 2.0 | 0.00 | 0.00 | 0.00 | 93 | 1019.0 |
| 20260906053811 | 60 | 122 | 2.0 | 5.0 | 0.00 | 0.00 | 0.00 | 93 | 1018.7 |
| 20260906053241 | 60 | 102 | 0.0 | 4.0 | 0.00 | 0.00 | 0.00 | 94 | 1018.7 |
| 20260906052933 | 60 | 140 | 1.0 | 2.0 | 0.00 | 0.00 | 0.00 | 95 | 1018.8 |
| 20260906052211 | 60 | 154 | 4.0 | 4.0 | 0.00 | 0.00 | 0.00 | 95 | 1018.7 |
| 20260906051710 | 60 | 36 | 0.0 | 4.0 | 0.00 | 0.00 | 0.00 | 95 | 1018.6 |
| 20260906051210 | 60 | 69 | 0.0 | 1.0 | 0.00 | 0.00 | 0.00 | 95 | 1018.8 |
| 20260906050641 | 60 | 66 | 1.0 | 2.0 | 0.00 | 0.00 | 0.00 | 95 | 1018.8 |
| 20260906050141 | 60 | 89 | 0.0 | 1.0 | 0.00 | 0.00 | 0.00 | 96 | 1018.7 |
| 20260906045640 | 60 | 101 | 2.0 | 3.0 | 0.00 | 0.00 | 0.00 | 96 | 1018.6 |
| 20260906045140 | 60 | 68 | 1.0 | 2.0 | 0.00 | 0.00 | 0.00 | 96 | 1018.6 |
| 20260906044610 | 60 | 94 | 1.0 | 2.0 | 0.00 | 0.00 | 0.00 | 96 | 1018.7 |
| 20260906044110 | 60 | 80 | 1.0 | 2.0 | 0.00 | 0.00 | 0.00 | 95 | 1018.7 |
| 20260906043541 | 60 | 86 | 1.0 | 2.0 | 0.00 | 0.00 | 0.00 | 95 | 1018.6 |
| 20260906043040 | 60 | 60 | 1.0 | 2.0 | 0.00 | 0.00 | 0.00 | 95 | 1018.4 |
| 20260906042511 | 60 | 93 | 1.0 | 2.0 | 0.00 | 0.00 | 0.00 | 95 | 1018.3 |
| 20260906042011 | 60 | 94 | 2.0 | 3.0 | 0.00 | 0.00 | 0.00 | 95 | 1018.5 |
| 20260906041511 | 60 | 103 | 1.0 | 2.0 | 0.00 | 0.00 | 0.00 | 95 | 1018.4 |
| 20260906041010 | 61 | 103 | 1.0 | 2.0 | 0.00 | 0.00 | 0.00 | 95 | 1018.4 |
| 20260906040510 | 61 | 84 | 2.0 | 2.0 | 0.00 | 0.00 | 0.00 | 95 | 1018.4 |
| 20260906040202 | 61 | 82 | 2.0 | 3.0 | 0.00 | 0.00 | 0.00 | 95 | 1018.4 |
| 20260906035441 | 61 | 93 | 1.0 | 2.0 | 0.00 | 0.00 | 0.00 | 95 | 1018.4 |
| 20260906034940 | 61 | 92 | 1.0 | 2.0 | 0.00 | 0.00 | 0.00 | 95 | 1018.5 |
| 20260906034700 | 61 | 87 | 0.0 | 1.0 | 0.00 | 0.00 | 0.00 | 95 | 1018.3 |
| 20260906033940 | 61 | 107 | 2.0 | 3.0 | 0.00 | 0.00 | 0.00 | 94 | 1018.3 |
| 20260906033411 | 61 | 107 | 1.0 | 2.0 | 0.00 | 0.00 | 0.00 | 94 | 1018.5 |
| 20260906032911 | 61 | 114 | 1.0 | 2.0 | 0.00 | 0.00 | 0.00 | 94 | 1018.4 |
| 20260906032341 | 62 | 105 | 0.0 | 2.0 | 0.00 | 0.00 | 0.00 | 93 | 1018.4 |
| 20260906031840 | 62 | 129 | 0.0 | 1.0 | 0.00 | 0.00 | 0.00 | 93 | 1018.1 |
| 20260906031311 | 61 | 129 | 0.0 | 2.0 | 0.00 | 0.00 | 0.00 | 93 | 1018.6 |
| 20260906030811 | 61 | 108 | 2.0 | 2.0 | 0.00 | 0.00 | 0.00 | 93 | 1018.5 |
| 20260906030241 | 62 | 99 | 1.0 | 2.0 | 0.00 | 0.00 | 0.00 | 92 | 1018.1 |
| 20260906025740 | 62 | 126 | 1.0 | 2.0 | 0.00 | 0.00 | 0.00 | 91 | 1018.5 |
| 20260906025240 | 62 | 119 | 0.0 | 2.0 | 0.00 | 0.00 | 0.00 | 91 | 1018.3 |
| 20260906024710 | 62 | 87 | 1.0 | 2.0 | 0.00 | 0.00 | 0.00 | 91 | 1018.5 |
| 20260906024210 | 63 | 89 | 0.0 | 1.0 | 0.00 | 0.00 | 0.00 | 90 | 1018.0 |
| 20260906023640 | 63 | 107 | 2.0 | 3.0 | 0.00 | 0.00 | 0.00 | 90 | 1018.1 |
| 20260906023140 | 62 | 105 | 3.0 | 3.0 | 0.00 | 0.00 | 0.00 | 90 | 1018.2 |
| 20260906023055 | 62 | 119 | 2.0 | 2.0 | 0.00 | 0.00 | 0.00 | 89 | 1018.3 |
| 20260906022110 | 63 | 110 | 1.0 | 1.0 | 0.00 | 0.00 | 0.00 | 88 | 1018.1 |
| 20260906021610 | 63 | 98 | 2.0 | 2.0 | 0.00 | 0.00 | 0.00 | 88 | 1017.9 |
| 20260906021041 | 64 | 120 | 2.0 | 2.0 | 0.00 | 0.00 | 0.00 | 86 | 1017.9 |
| 20260906020540 | 64 | 95 | 2.0 | 3.0 | 0.00 | 0.00 | 0.00 | 86 | 1017.8 |
| 20260906020040 | 64 | 107 | 2.0 | 2.0 | 0.00 | 0.00 | 0.00 | 86 | 1018.0 |
| 20260906015511 | 64 | 101 | 2.0 | 2.0 | 0.00 | 0.00 | 0.00 | 86 | 1018.3 |
| 20260906015011 | 64 | 103 | 2.0 | 2.0 | 0.00 | 0.00 | 0.00 | 85 | 1018.0 |
| 20260906014510 | 64 | 115 | 1.0 | 2.0 | 0.00 | 0.00 | 0.00 | 84 | 1018.0 |
| 20260906014426 | 65 | 117 | 2.0 | 2.0 | 0.00 | 0.00 | 0.00 | 83 | 1017.9 |
| 20260906013629 | 65 | 101 | 1.0 | 2.0 | 0.00 | 0.00 | 0.00 | 82 | 1017.7 |
| 20260906012841 | 65 | 141 | 2.0 | 2.0 | 0.00 | 0.00 | 0.00 | 83 | 1017.7 |
| 20260906012602 | 66 | 154 | 0.0 | 2.0 | 0.00 | 0.00 | 0.00 | 83 | 1018.1 |
| 20260906011811 | 66 | 146 | 1.0 | 2.0 | 0.00 | 0.00 | 0.00 | 81 | 1017.9 |
| 20260906011311 | 67 | 142 | 1.0 | 1.0 | 0.00 | 0.00 | 0.00 | 81 | 1017.9 |
| 20260906010810 | 67 | 154 | 0.0 | 0.0 | 0.00 | 0.00 | 0.00 | 78 | 1017.7 |
| 20260906010501 | 68 | 102 | 2.0 | 2.0 | 0.00 | 0.00 | 0.00 | 78 | 1018.0 |
| 20260906005740 | 68 | 113 | 2.0 | 3.0 | 0.00 | 0.00 | 0.00 | 77 | 1017.8 |
| 20260906005211 | 69 | 102 | 2.0 | 3.0 | 0.00 | 0.00 | 0.00 | 75 | 1017.7 |
| 20260906004710 | 69 | 98 | 3.0 | 4.0 | 0.00 | 0.00 | 0.00 | 75 | 1017.5 |
| 20260906004210 | 69 | 110 | 2.0 | 4.0 | 0.00 | 0.00 | 0.00 | 77 | 1017.8 |
| 20260906003900 | 69 | 102 | 3.0 | 4.0 | 0.00 | 0.00 | 0.00 | 76 | 1017.7 |
| 20260906003140 | 70 | 95 | 3.0 | 3.0 | 0.00 | 0.00 | 0.00 | 76 | 1017.5 |
| 20260906002611 | 70 | 121 | 2.0 | 3.0 | 0.00 | 0.00 | 0.00 | 75 | 1017.6 |
| 20260906002330 | 71 | 112 | 3.0 | 3.0 | 0.00 | 0.00 | 0.00 | 74 | 1017.6 |
| 20260906001610 | 71 | 95 | 2.0 | 3.0 | 0.00 | 0.00 | 0.00 | 74 | 1017.3 |
| 20260906001041 | 71 | 104 | 3.0 | 4.0 | 0.00 | 0.00 | 0.00 | 72 | 1017.2 |
| 20260906000540 | 72 | 109 | 3.0 | 4.0 | 0.00 | 0.00 | 0.00 | 71 | 1017.2 |
| 20260906000040 | 72 | 105 | 2.0 | 4.0 | 0.00 | 0.00 | 0.00 | 70 | 1017.2 |
| 20260905235730 | 73 | 80 | 2.0 | 4.0 | 0.00 | 0.00 | 0.00 | 69 | 1017.0 |
| 20260905235010 | 73 | 83 | 2.0 | 4.0 | 0.00 | 0.00 | 0.00 | 67 | 1017.2 |
| 20260905234703 | 74 | 110 | 4.0 | 6.0 | 0.00 | 0.00 | 0.00 | 65 | 1017.5 |
| 20260905234200 | 74 | 115 | 3.0 | 3.0 | 0.00 | 0.00 | 0.00 | 63 | 1017.0 |
| 20260905233440 | 74 | 94 | 4.0 | 5.0 | 0.00 | 0.00 | 0.00 | 62 | 1017.4 |
| 20260905232911 | 75 | 93 | 4.0 | 5.0 | 0.00 | 0.00 | 0.00 | 61 | 1017.2 |
| 20260905232341 | 75 | 76 | 5.0 | 6.0 | 0.00 | 0.00 | 0.00 | 61 | 1017.5 |
| 20260905231841 | 75 | 87 | 3.0 | 6.0 | 0.00 | 0.00 | 0.00 | 61 | 1017.0 |
| 20260905231340 | 75 | 85 | 2.0 | 9.0 | 0.00 | 0.00 | 0.00 | 59 | 1017.2 |
| 20260905230840 | 75 | 65 | 3.0 | 9.0 | 0.00 | 0.00 | 0.00 | 59 | 1017.0 |
| 20260905230533 | 76 | 96 | 8.0 | 9.0 | 0.00 | 0.00 | 0.00 | 59 | 1017.0 |
| 20260905225811 | 76 | 87 | 3.0 | 9.0 | 0.00 | 0.00 | 0.00 | 58 | 1017.1 |
| 20260905225311 | 76 | 71 | 5.0 | 9.0 | 0.00 | 0.00 | 0.00 | 58 | 1017.1 |
| 20260905224741 | 76 | 96 | 6.0 | 8.0 | 0.00 | 0.00 | 0.00 | 59 | 1017.5 |
| 20260905224240 | 76 | 70 | 3.0 | 6.0 | 0.00 | 0.00 | 0.00 | 59 | 1017.5 |
| 20260905223711 | 76 | 67 | 4.0 | 7.0 | 0.00 | 0.00 | 0.00 | 58 | 1017.4 |
| 20260905223210 | 77 | 111 | 7.0 | 9.0 | 0.00 | 0.00 | 0.00 | 58 | 1017.1 |
| 20260905222710 | 77 | 82 | 5.0 | 9.0 | 0.00 | 0.00 | 0.00 | 58 | 1017.2 |
| 20260905222210 | 77 | 96 | 4.0 | 7.0 | 0.00 | 0.00 | 0.00 | 58 | 1017.1 |
| 20260905221641 | 77 | 118 | 3.0 | 7.0 | 0.00 | 0.00 | 0.00 | 58 | 1017.2 |
| 20260905221140 | 76 | 99 | 7.0 | 8.0 | 0.00 | 0.00 | 0.00 | 59 | 1017.2 |
| 20260905220640 | 77 | 104 | 4.0 | 6.0 | 0.00 | 0.00 | 0.00 | 59 | 1017.3 |
| 20260905220111 | 77 | 89 | 0.0 | 4.0 | 0.00 | 0.00 | 0.00 | 61 | 1016.8 |
| 20260905215611 | 77 | 116 | 4.0 | 5.0 | 0.00 | 0.00 | 0.00 | 62 | 1016.9 |
| 20260905215331 | 76 | 54 | 6.0 | 7.0 | 0.00 | 0.00 | 0.00 | 62 | 1017.3 |
| 20260905214611 | 76 | 77 | 3.0 | 5.0 | 0.00 | 0.00 | 0.00 | 64 | 1016.9 |
| 20260905214041 | 75 | 94 | 4.0 | 5.0 | 0.00 | 0.00 | 0.00 | 65 | 1017.1 |
| 20260905213511 | 76 | 92 | 5.0 | 5.0 | 0.00 | 0.00 | 0.00 | 65 | 1016.8 |
| 20260905213230 | 76 | 88 | 3.0 | 6.0 | 0.00 | 0.00 | 0.00 | 63 | 1017.3 |
| 20260905212731 | 76 | 78 | 4.0 | 6.0 | 0.00 | 0.00 | 0.00 | 65 | 1017.2 |
| 20260905211941 | 76 | 62 | 4.0 | 8.0 | 0.00 | 0.00 | 0.00 | 63 | 1017.2 |
| 20260905211411 | 78 | 61 | 4.0 | 8.0 | 0.00 | 0.00 | 0.00 | 60 | 1017.2 |
| 20260905210841 | 78 | 80 | 3.0 | 5.0 | 0.00 | 0.00 | 0.00 | 62 | 1017.3 |
| 20260905210311 | 76 | 120 | 1.0 | 4.0 | 0.00 | 0.00 | 0.00 | 66 | 1017.0 |
| 20260905205811 | 76 | 119 | 0.0 | 4.0 | 0.00 | 0.00 | 0.00 | 66 | 1017.0 |
| 20260905205311 | 75 | 117 | 3.0 | 5.0 | 0.00 | 0.00 | 0.00 | 67 | 1017.5 |
| 20260905204741 | 76 | 97 | 5.0 | 6.0 | 0.00 | 0.00 | 0.00 | 67 | 1017.1 |
| 20260905204241 | 76 | 80 | 3.0 | 5.0 | 0.00 | 0.00 | 0.00 | 67 | 1017.1 |
| 20260905203740 | 76 | 70 | 3.0 | 3.0 | 0.00 | 0.00 | 0.00 | 67 | 1017.2 |
| 20260905203432 | 77 | 99 | 3.0 | 5.0 | 0.00 | 0.00 | 0.00 | 66 | 1017.3 |
| 20260905202710 | 76 | 13 | 1.0 | 3.0 | 0.00 | 0.00 | 0.00 | 67 | 1017.1 |
| 20260905202141 | 76 | 102 | 5.0 | 6.0 | 0.00 | 0.00 | 0.00 | 69 | 1017.3 |
| 20260905201640 | 78 | 75 | 5.0 | 7.0 | 0.00 | 0.00 | 0.00 | 65 | 1016.9 |
| 20260905201140 | 78 | 129 | 3.0 | 4.0 | 0.00 | 0.00 | 0.00 | 67 | 1016.7 |
| 20260905200640 | 76 | 92 | 3.0 | 7.0 | 0.00 | 0.00 | 0.00 | 68 | 1017.1 |
| 20260905200111 | 75 | 66 | 7.0 | 10.0 | 0.00 | 0.00 | 0.00 | 68 | 1017.0 |
| 20260905195610 | 76 | 53 | 2.0 | 6.0 | 0.00 | 0.00 | 0.00 | 69 | 1017.1 |
| 20260905195041 | 76 | 71 | 2.0 | 6.0 | 0.00 | 0.00 | 0.00 | 69 | 1017.0 |
| 20260905194541 | 75 | 114 | 2.0 | 8.0 | 0.00 | 0.00 | 0.00 | 69 | 1017.2 |
| 20260905194040 | 75 | 84 | 2.0 | 6.0 | 0.00 | 0.00 | 0.00 | 71 | 1017.1 |
| 20260905193511 | 76 | 82 | 5.0 | 8.0 | 0.00 | 0.00 | 0.00 | 69 | 1017.1 |
| 20260905193229 | 80 | 86 | 2.0 | 7.0 | 0.00 | 0.00 | 0.00 | 65 | 1017.1 |
| 20260905192441 | 78 | 95 | 1.0 | 7.0 | 0.00 | 0.00 | 0.00 | 68 | 1017.1 |
| 20260905192202 | 77 | 32 | 3.0 | 5.0 | 0.00 | 0.00 | 0.00 | 69 | 1017.4 |
| 20260905191411 | 76 | 21 | 1.0 | 5.0 | 0.00 | 0.00 | 0.00 | 71 | 1017.1 |
| 20260905190910 | 77 | 21 | 2.0 | 7.0 | 0.00 | 0.00 | 0.00 | 70 | 1017.0 |
| 20260905190341 | 77 | 340 | 3.0 | 8.0 | 0.00 | 0.00 | 0.00 | 70 | 1016.9 |
| 20260905185840 | 75 | 81 | 3.0 | 4.0 | 0.00 | 0.00 | 0.00 | 74 | 1017.2 |
| 20260905185311 | 76 | 350 | 3.0 | 6.0 | 0.00 | 0.00 | 0.00 | 71 | 1017.2 |
| 20260905184741 | 75 | 73 | 4.0 | 10.0 | 0.00 | 0.00 | 0.00 | 71 | 1017.0 |
| 20260905184240 | 76 | 69 | 5.0 | 8.0 | 0.00 | 0.00 | 0.00 | 72 | 1017.2 |
| 20260905183740 | 74 | 81 | 2.0 | 6.0 | 0.00 | 0.00 | 0.00 | 76 | 1017.4 |
| 20260905183240 | 74 | 72 | 4.0 | 8.0 | 0.00 | 0.00 | 0.00 | 74 | 1017.4 |
| 20260905182210 | 75 | 60 | 4.0 | 7.0 | 0.00 | 0.00 | 0.00 | 74 | 1017.6 |
| 20260905181710 | 75 | 0 | 2.0 | 6.0 | 0.00 | 0.00 | 0.00 | 74 | 1017.8 |
| 20260905181141 | 74 | 78 | 1.0 | 5.0 | 0.00 | 0.00 | 0.00 | 77 | 1017.6 |
| 20260905180641 | 73 | 76 | 1.0 | 8.0 | 0.00 | 0.00 | 0.00 | 78 | 1017.4 |
| 20260905180140 | 74 | 22 | 2.0 | 6.0 | 0.00 | 0.00 | 0.00 | 77 | 1017.4 |
| 20260905175611 | 73 | 65 | 9.0 | 11.0 | 0.00 | 0.00 | 0.00 | 78 | 1017.4 |
| 20260905175330 | 74 | 51 | 5.0 | 9.0 | 0.00 | 0.00 | 0.00 | 77 | 1017.3 |
| 20260905175027 | 73 | 66 | 5.0 | 11.0 | 0.00 | 0.00 | 0.00 | 78 | 1017.5 |
| 20260905174040 | 73 | 142 | 2.0 | 6.0 | 0.00 | 0.00 | 0.00 | 78 | 1017.5 |
| 20260905173511 | 73 | 69 | 4.0 | 8.0 | 0.00 | 0.00 | 0.00 | 80 | 1017.3 |
| 20260905173200 | 73 | 52 | 6.0 | 9.0 | 0.00 | 0.00 | 0.00 | 79 | 1017.7 |
| 20260905172411 | 72 | 79 | 3.0 | 7.0 | 0.00 | 0.00 | 0.00 | 82 | 1017.8 |
| 20260905171840 | 72 | 83 | 3.0 | 6.0 | 0.00 | 0.00 | 0.00 | 82 | 1017.5 |
| 20260905171311 | 72 | 61 | 4.0 | 7.0 | 0.00 | 0.00 | 0.00 | 81 | 1017.7 |
| 20260905170811 | 73 | 29 | 0.0 | 6.0 | 0.00 | 0.00 | 0.00 | 81 | 1017.5 |
| 20260905170240 | 72 | 83 | 2.0 | 6.0 | 0.00 | 0.00 | 0.00 | 82 | 1018.1 |
| 20260905165740 | 72 | 35 | 2.0 | 7.0 | 0.00 | 0.00 | 0.00 | 83 | 1017.7 |
| 20260905165431 | 71 | 308 | 1.0 | 8.0 | 0.00 | 0.00 | 0.00 | 83 | 1017.7 |
| 20260905164711 | 71 | 61 | 9.0 | 11.0 | 0.00 | 0.00 | 0.00 | 84 | 1018.1 |
| 20260905164210 | 71 | 77 | 2.0 | 8.0 | 0.00 | 0.00 | 0.00 | 84 | 1018.1 |
| 20260905163710 | 71 | 77 | 5.0 | 6.0 | 0.00 | 0.00 | 0.00 | 84 | 1018.4 |
| 20260905163627 | 71 | 11 | 5.0 | 7.0 | 0.00 | 0.00 | 0.00 | 85 | 1018.1 |
| 20260905162611 | 71 | 30 | 4.0 | 6.0 | 0.00 | 0.00 | 0.00 | 84 | 1018.1 |
| 20260905162110 | 71 | 63 | 2.0 | 6.0 | 0.00 | 0.00 | 0.00 | 85 | 1018.0 |
| 20260905161610 | 70 | 22 | 3.0 | 8.0 | 0.00 | 0.00 | 0.00 | 86 | 1018.2 |
| 20260905161329 | 70 | 101 | 2.0 | 6.0 | 0.00 | 0.00 | 0.00 | 85 | 1017.9 |
| 20260905160541 | 70 | 355 | 1.0 | 8.0 | 0.00 | 0.00 | 0.00 | 85 | 1018.0 |
| 20260905160041 | 70 | 28 | 2.0 | 7.0 | 0.00 | 0.00 | 0.00 | 86 | 1017.9 |
| 20260905155511 | 69 | 357 | 3.0 | 6.0 | 0.00 | 0.00 | 0.00 | 86 | 1018.1 |
| 20260905154941 | 69 | 22 | 5.0 | 6.0 | 0.00 | 0.00 | 0.00 | 87 | 1017.9 |
| 20260905154411 | 69 | 58 | 4.0 | 9.0 | 0.00 | 0.00 | 0.00 | 86 | 1017.8 |
| 20260905153841 | 68 | 54 | 4.0 | 7.0 | 0.00 | 0.00 | 0.00 | 87 | 1017.9 |
| 20260905153311 | 69 | 19 | 6.0 | 6.0 | 0.00 | 0.00 | 0.00 | 87 | 1018.0 |